Tracking 22459 objects as of 3-Mar-2021
HD Live streaming from Space Station
objects crossing your sky now

BREEZE-M DEB

Track BREEZE-M DEB now!
10-day predictions


NORAD ID: 32041
Int'l Code: 2006-006U
Perigee: 348.3 km
Apogee: 11,109.7 km
Inclination: 51.8 °
Period: 220.8 minutes
Semi major axis: 12100 km
RCS: 0.0201 m2 (small)
Launch date: February 28, 2006
Source: Commonwealth of Independent States (former USSR) (CIS)
Launch site: TYURATAM MISSILE AND SPACE COMPLEX (TTMTR)

Note: This is SATELLITE DEBRIS
aabbcc
Your satellite tracking list
Your tracking list is empty




NASA's NSSDC Master Catalog

Two Line Element Set (TLE):
1 32041U 06006U   21059.76179484  .00007988  00000-0  17675-2 0  9995
2 32041  51.7613 322.1928 4446844 334.4026  22.4172  6.52265467302374
Source of the keplerian elements: AFSPC